Погода в Казачинске

Хотите узнать прогноз погоды в Казачинске? Тогда Вам сюда: Погода в Казачинске

Поиск расширенной информации на нашем сайте:

Полезная информация:

Новости сайта



02.01.2020
Опубликован Долгосрочный прогноз погоды по городам России и ближнего зарубежья на январь 2020 года.
Карты: Прогноз на январь и февраль 2020 года, Сравнение прогнозируемой аномалии приземной температуры воздуха на январь 2020 года по разным моделям.




Погода в Казачинске - сегодня

Время (UTC), дата Ветер
(°,м/с) 
Видим.   Явления Облачность Т
(°С)
Тd
(°С)
f(%) Тe
(°С)
Pmin
(гПа)
dP
(гПа)
Po
(мм)
O2
(г/м3)
Тmin Tmax R s Состояние
почвы
00 30.11.20 220 (ЮЗ) н/о  слаб. ливневой снег  9/6 600 м кучево-дожд., верхняя 
[Cb cap|Ci fib]
-15.9 -19.1 76 -18  1040.6  -0.2  745  320  -17.9    0.8  32  равномерный
сухой снег
100% 
03 30.11.20 210 (ЮЗ) 20000 м  в посл. час ливневой снег  9/6 600 м кучево-дожд., верхняя 
[Cb cap|Ci fib]
-15 -18.6 74 -17  1040.7  0.2  745  319           
06 30.11.20 200 (Ю) 20000 м  {ливн. осадки}  9/3 600 м кучево-дожд., верхняя 
[Cb cap|Ci sp]
-13.9 -17.8 72 -16  1039.9  -0.6  744  317           
09 30.11.20 210 (ЮЗ) 20000 м  в посл. час ливневой снег  9/6 600 м кучево-дожд., верхняя 
[Cb cap|Ci fib]
-14.6 -17.4 79 -15  1040.1  -0.1  744  318           
12 30.11.20 200 (Ю) н/о  ливневой снег  10/8 600 м кучево-дожд., средняя 
[Cb cap|As trans]
-13.7 -16.4 80 -16  1040.4  0.4  745  317    -13.6     
15 30.11.20 190 (Ю) н/о  слаб. ливневой снег  10/8 600 м кучево-дожд., средняя 
[Cb cap|As trans]
-13.7 -16.7 78 -16  1040.2  -0.1  745  317           
18 30.11.20 190 (Ю) н/о  ливневой снег  10/8 600 м кучево-дожд., средняя 
[Cb cap|As trans]
-14.4 -17.1 80 -14  1040.3  -0.1  744  318           
21 30.11.20 180 (Ю) н/о  слаб. ливневой снег  10/8 600 м кучево-дожд., средняя 
[Cb cap|As trans]
-14.4 -17.4 78 -17  1039.9  -0.4  744  318           
00 01.12.20 200 (Ю) н/о  слаб. ливневой снег  10/8 600 м кучево-дожд., верхняя 
[Cb cap|Cs]
-14.8 -17.9 77 -17  1039.7  -0.3  744  318  -15.2    33  равномерный
сухой снег
100% 
03 01.12.20 190 (Ю) 10 км  слаб. ливневой снег  10/10 600 м кучево-дожд. 
[Cb cap]
-14 -17.4 75 -18  1039.3  -0.2  744  317           
06 01.12.20 190 (Ю) 4000 м  ливневой снег  10/8 600 м кучево-дожд., средняя 
[Cb cap|As trans]
-12.2 -15.5 76 -16  1038.2  -0.7  743  315           
09 01.12.20 200 (Ю) 10 км  слаб. ливневой снег  10/8 600 м кучево-дожд., средняя 
[Cb cap|As trans]
-11.9 -14.7 80 -14  1038.1  743  314           
12 01.12.20 200 (Ю) н/о  ливневой снег  10/6 600 м кучево-дожд., средняя 
[Cb cap|As trans]
-12 -14.6 81 -14  1038.8  0.7  744  315    -11.8     
15 01.12.20 210 (ЮЗ) н/о  слаб. ливневой снег  9/6 600 м кучево-дожд., верхняя 
[Cb cap|Ci fib]
-12.9 -15.4 81 -13  1039.3  0.3  744  316           
18 01.12.20 200 (Ю) н/о  слаб. ливневой снег  9/6 600 м кучево-дожд., верхняя 
[Cb cap|Ci fib]
-12.7 -15.1 82 -15  1040.1  0.7  745  316           
21 01.12.20 200 (Ю) н/о  слаб. ливневой снег  9/5 600 м кучево-дожд., верхняя 
[Cb cap|Ci fib]
-12.4 -14.6 84 -12  1041  0.9  745  316           
00 02.12.20 200 (Ю) н/о  слаб. ливневой снег  9/9 600 м кучево-дожд. 
[Cb cap]
-12.5 -15.3 80 -15  1042.1  746  316  -13.9    35  равномерный
сухой снег
100% 
03 02.12.20 180 (Ю) 10 км  слаб. ливневой снег  10/6 600 м кучево-дожд., средняя 
[Cb cap|As trans]
-12.3 -15.4 78 -12  1043.3  1.2  747  316           
06 02.12.20 190 (Ю) 10 км  слаб. ливневой снег  9/9 600 м кучево-дожд. 
[Cb cap]
-11.1 -14.8 74 -15  1042.7  -0.3  747  315           
09 02.12.20 210 (ЮЗ) 10 км  слаб. ливневой снег  9/9 600 м кучево-дожд. 
[Cb cap]
-11.6 -14.8 77 -15  1042.9  -0.1  747  316           
12 02.12.20 190 (Ю) н/о  {ливн. осадки}  9/8 600 м кучево-дожд., верхняя 
[Cb cap|Ci fib]
-11.4 -14.7 76 -16  1043.1  0.2  747  315    -11  0.2     
15 02.12.20 200 (Ю) н/о  в посл. час ливневой снег  10/8 600 м кучево-дожд., средняя 
[Cb cap|As trans]
-11.4 -14.6 77 -15  1043  -0.1  747  315           
18 02.12.20 210 (ЮЗ) н/о  {ливн. осадки}  10/8 600 м кучево-дожд., средняя 
[Cb cap|As trans]
-11.2 -15 73 -14  1041.4  -1.5  746  315           
21 02.12.20 200 (Ю) н/о  слаб. ливневой снег  10/8 600 м кучево-дожд., средняя 
[Cb cap|As op]
-11.4 -14.9 75 -15  1040.7  -0.7  745  315           
00 03.12.20 190 (Ю) н/о  слаб. ливневой снег  10/8 600 м кучево-дожд., средняя 
[Cb cap|As trans]
-11.3 -15 74 -14  1039.6  -1.1  744  314  -11.7    0.2  36  равномерный
сухой снег
100% 
Время (UTC), дата Ветер
(°,м/с) 
Видим.   Явления Облачность Т
(°С)
Тd
(°С)
f(%) Тe
(°С)
Pmin
(гПа)
dP
(гПа)
Po
(мм)
O2
(г/м3)
Тmin Tmax R s Состояние
почвы

Для получения пояснительной информации подведите курсор к названию столбца.

ПОГОДА в Казачинске - архив

Всё, что Вы хотите узнать о погоде в Казачинске - удобно и подробно!

Выберите нужную дату (начиная с 1 января 2019* года) и нажмите кнопку "Найти".
Будут отображены архивные сводки погоды по пункту Казачинск, начиная с указанной даты.


Отображать данные в формате CSV (для использования в таблицах Excel)


Внимание! Наш архив погоды предназначен исключительно для личного некоммерческого использования в познавательных целях. Если Вам необходимы официальные справки о состоянии погоды (для производственных, юридических, коммерческих и т.п. целей), обращайтесь в органы Росгидромета.

*Примечание: данная дата относится к архиву по метеостанциям СССР (Россия, СНГ, Балтия).
Архив по метеостанциям Зарубежной Европы и Азии (кроме Китая) хранится 10 дней, по другим регионам земного шара (Китай, Африка, Америка, Австралия, Океания) - 1 день.

Казачинск - район местоположения метеостанции


Название, широта, долгота, высота метеостанции:
Казачинск 56.3°ш. 107.6°д. 362 м над ур. моря [Российская Федерация]

Дополнительная информация

В oтличие oт бoльшинства пoгoдных сайтoв мы публикуем пoдрoбную метеoинфoрмацию в детальнoм прoфессиoнальнoм фoрмате.

Характеристики температуры и влажнoсти вoздуха измеряются на высoте 2 м в тени вдали oт зданий и деревьев.
Скoрoсть ветра измеряется на высoте 10 м (на урoвне рoста челoвека скoрoсть ветра ниже в 1.5-2 раза). Если метеoстанция нахoдится в гoрoде или в лесу, тo скoрoсть ветра занижена на 2-4 м/с пo сравнению с oткрытым местoм. Скoрoсть ветра над акватoриями крупных рек и oзёр, а также на вершинах хoлмoв на 2-5 м/с выше, чем в oбычных услoвиях.
Атмoсфернoе давление в разных тoчках местнoсти мoжет значительнo oтличаться oт давления на метеoстанции, в зависимoсти oт услoвий рельефа (при пoдъёме на 10 м давление пoнижается примернo на 1 мм рт.ст.).